Regional Weather Roundup
Issued by NWS Columbia, SC

Home | Current Version | Previous Version | Text Only | Print | Product List | Glossary On
Versions: 1 2 3 4 5 6 7 8 9 10 11 12 13 14 15 16 17 18 19 20 21 22 23 24 25 26 27 28 29 30 31 32 33 34 35 36 37 38 39 40 41 42 43 44 45 46 47 48 49 50
000
ASUS42 KCAE 210010
RWRCAE
REGIONAL WEATHER ROUNDUP
NATIONAL WEATHER SERVICE COLUMBIA SC
800 PM EDT SAT SEP 20 2014

NOTE: "FAIR" INDICATES FEW OR NO CLOUDS BELOW 12,000 FEET WITH NO
SIGNIFICANT WEATHER AND/OR OBSTRUCTIONS TO VISIBILITY.

NOT ALL STATIONS ARE QUALITY CONTROLLED BY THE NATIONAL
WEATHER SERVICE. USE DATA WITH CAUTION...ESPECIALLY
DEWPOINT OBSERVATIONS.

SCZ001>056-GAZ040-063>065-077-210100-
...UPSTATE SOUTH CAROLINA...

CITY           SKY/WX    TMP DP  RH WIND       PRES   REMARKS
ANDERSON       CLEAR     72  61  68 CALM      30.04S
6HR MIN TEMP:  72; 6HR MAX TEMP:  82;

LIBERTY        FAIR      69  64  84 MISG      30.05S
6HR MIN TEMP:  64; 6HR MAX TEMP:  81;

SPARTANBURG    FAIR      73  59  60 NE3       30.04S
CLEMSON        CLEAR     74  60  61 CALM      30.05S
6HR MIN TEMP:  74; 6HR MAX TEMP:  84;

GREENVILLE     CLEAR     73  59  61 N3        30.06S
6HR MIN TEMP:  73; 6HR MAX TEMP:  81; 6HR PCP: TRACE;

GREENWOOD      PTCLDY    71  62  73 CALM      30.04R
6HR MIN TEMP:  70; 6HR MAX TEMP:  84;

GREER          CLEAR     70  61  73 CALM      30.04S
6HR MIN TEMP:  70; 6HR MAX TEMP:  80;

ROCK HILL      MOCLDY    69  63  81 N3        30.03F
6HR MIN TEMP:  69; 6HR MAX TEMP:  82;

CHESTER        FAIR      73  59  60 N3        30.07F
LAURENS        FAIR      70  61  73 CALM      30.04S


...CENTRAL SOUTH CAROLINA...

CITY           SKY/WX    TMP DP  RH WIND       PRES   REMARKS
COLUMBIA APT   CLOUDY    76  59  55 N3        29.99S
6HR MIN TEMP:  76; 6HR MAX TEMP:  82;

COLUMBIA OWENS CLOUDY    75  59  57 CALM      30.00S
6HR MIN TEMP:  75; 6HR MAX TEMP:  82;

DARLINGTON     CLOUDY    72  63  73 N6        30.00S
6HR MIN TEMP:  72; 6HR MAX TEMP:  81;

FLORENCE       CLOUDY    74  62  66 N8        29.98S
6HR MIN TEMP:  73; 6HR MAX TEMP:  79;

MCENTIRE ANGB  CLOUDY    72  62  71 N5        29.99S
6HR MIN TEMP:  71; 6HR MAX TEMP:  79;

ORANGEBURG     CLOUDY    72  62  71 NE6       29.98S
6HR MIN TEMP:  72; 6HR MAX TEMP:  77;

SUMTER SHAW    CLOUDY    72  63  72 N5        29.97F
6HR MIN TEMP:  72; 6HR MAX TEMP:  79;

NEWBERRY       FAIR      70  61  73 NE3       30.05R
AIKEN          FAIR      72  63  73 N3        30.03F
BARNWELL       FAIR      72  64  78 N3        29.99S
MANNING        FAIR      72  64  78 NW5       29.97S
CAMDEN         FAIR      72  63  73 CALM      30.00F
LANCASTER      FAIR      70  64  83 CALM      30.02S
WINNSBORO      FAIR      72  59  64 N5        30.01S


...EASTERN AND COASTAL SOUTH CAROLINA...

CITY           SKY/WX    TMP DP  RH WIND       PRES   REMARKS
MYRTLE BEACH   DRIZZLE   73  64  73 N12       29.93F
N MYRTLE BCH   CLOUDY    73  66  78 NE12      29.93F
6HR MIN TEMP:  73; 6HR MAX TEMP:  76;

CONWAY         FAIR      72  64  78 CALM      29.95S
HARTSVILLE     FAIR      73  39  29 NE8       30.00F
FLORENCE       CLOUDY    74  62  66 N8        29.98S
6HR MIN TEMP:  73; 6HR MAX TEMP:  79;

DARLINGTON     CLOUDY    72  63  73 N6        30.00S
6HR MIN TEMP:  72; 6HR MAX TEMP:  81;

CHARLESTON APT CLOUDY    74  64  71 N10       29.93F
6HR MIN TEMP:  74; 6HR MAX TEMP:  75; 6HR PCP: TRACE;

MOUNT PLEASANT FAIR      72  66  83 N6        29.93F
WALTERBORO     CLOUDY    72  66  83 N6        29.96S
BEAUFORT       CLOUDY    73  66  78 SW10      29.94F
6HR MIN TEMP:  73; 6HR MAX TEMP:  75;



...EASTERN GEORGIA...

CITY           SKY/WX    TMP DP  RH WIND       PRES   REMARKS
AUGUSTA BUSH F MOCLDY    70  62  76 NE3       29.98S
6HR MIN TEMP:  69; 6HR MAX TEMP:  85;

AUGUSTA DANIEL MOCLDY    78  58  49 NE6       30.00S
6HR MIN TEMP:  78; 6HR MAX TEMP:  86;

THOMSON        PTCLDY    73  69  87 CALM      30.06R
6HR MIN TEMP:  73; 6HR MAX TEMP:  85;

WASHINGTON     FAIR      77  68  73 N3        30.03R
CLAXTON        FAIR      73  70  88 CALM      29.97S
SYLVANIA       CLOUDY    77  71  81 CALM      29.99S
6HR MIN TEMP:  77; 6HR MAX TEMP:  83;

STATESBORO     CLOUDY    71  67  87 CALM      29.98R
6HR MIN TEMP:  71; 6HR MAX TEMP:  79;

SAVANNAH       CLOUDY    73  65  75 N8        29.95S
6HR MIN TEMP:  73; 6HR MAX TEMP:  77;



...SOUTHERN NORTH CAROLINA...

CITY           SKY/WX    TMP DP  RH WIND       PRES   REMARKS
CHARLOTTE      MOCLDY    72  58  61 N5        30.03F
6HR MIN TEMP:  71; 6HR MAX TEMP:  82;

MONROE         CLOUDY    73  58  59 NE5       30.02S
6HR MIN TEMP:  73; 6HR MAX TEMP:  83;

WADESBORO      CLOUDY    72  62  71 CALM      30.01S
6HR MIN TEMP:  72; 6HR MAX TEMP:  83;

ROCKINGHAM     CLOUDY    72  60  64 N3        30.00F
6HR MIN TEMP:  72; 6HR MAX TEMP:  80;

RUTHERFORDTON  CLEAR     72  60  67 E3        30.06F
6HR MIN TEMP:  71; 6HR MAX TEMP:  81;

ASHEVILLE      CLEAR     66  59  78 CALM      30.10S
6HR MIN TEMP:  66; 6HR MAX TEMP:  76;


$$


USA.gov is the U.S. government's official web portal to all federal, state and local government web resources and services.